Miscellaneous Local Product
Issued by NWS North Platte, NE

Home | Current Version | Previous Version | Text Only | Print | Product List | Glossary On
Versions: 1 2 3 4 5 6 7 8 9 10 11 12 13 14 15 16 17 18 19 20 21 22 23 24 25 26 27 28 29 30 31 32 33 34 35 36 37 38 39 40 41 42 43 44 45 46 47 48 49 50
000
AXUS43 KLBF 172310
MISLBF


WESTERN AND NORTH CENTRAL NEBRASKA HOURLY WEATHER ROUNDUP
NATIONAL WEATHER SERVICE NORTH PLATTE NE
600 PM CDT TUE OCT 17 2017

NOTE: "FAIR" INDICATES FEW OR NO CLOUDS BELOW 12,000 FEET WITH NO
SIGNIFICANT WEATHER AND/OR OBSTRUCTIONS TO VISIBILITY.

NOTE: STATIONS NOT REPORTING VARIABLES SUCH AS SKY/WEATHER OR
PRESSURE ARE PROVIDED BY RAWS AND APRS NETWORKS AND ARE NOT UNDER
NATIONAL WEATHER SERVICE QUALITY CONTROL.

...OBSERVATIONS IN AND NEAR THE EASTERN PANHANDLE OF NEBRASKA...

CITY           SKY/WX    TMP DP  RH WIND       PRES   REMARKS
PINE RIDGE     SUNNY     77  19  11 SW9       29.91F
GORDON         FAIR      75  24  15 SW7       29.93F
CHADRON        SUNNY     78  14   9 W9        29.90F
ALLIANCE       SUNNY     74  16  11 W10       29.96F
SIDNEY         SUNNY     77  10   7 SW12G22   30.03S
CRESCENT LAKE    N/A     77  16  10 W8G17       N/A
$$

...OBSERVATIONS IN NORTHERN NEBRASKA AND FAR SOUTHERN SOUTH DAKOTA...

CITY           SKY/WX    TMP DP  RH WIND       PRES   REMARKS
WINNER         FAIR      72  45  37 SE9       29.87F
VALENTINE      CLEAR     78  25  14 S8        29.90F
THEDFORD       CLEAR     78  27  15 SW9       29.96S
AINSWORTH      CLEAR     69  37  30 S8        29.92F
O`NEILL        CLEAR     70  44  38 S3        29.94F
ORD            CLEAR     74  34  23 S7        29.95F
BROKEN BOW     CLEAR     70  41  34 SE7       29.96F
VALENTINE NWR    N/A     79  20  11 SW12        N/A
HALSEY           N/A     81  19  10 SW6G13      N/A
BUTTE            N/A     72  40  30 SE6         N/A
CHAMBERS         N/A     70  40  33 CALM        N/A
EWING            N/A     74  41  30 CALM        N/A
$$

...OBSERVATIONS IN SOUTHWEST NEBRASKA AND FAR NORTHEAST COLORADO...

CITY           SKY/WX    TMP DP  RH WIND       PRES   REMARKS
WRAY           FAIR      79  18  10 S9        30.03F
HOLYOKE        FAIR      81  21  11 S8        30.02S
IMPERIAL       SUNNY     78  16   9 S10       30.00F
OGALLALA       SUNNY     80  21  11 S12G18    29.97F
NORTH PLATTE   CLEAR     76  31  19 S10       29.96F
MCCOOK         CLEAR     78  30  17 S7        30.00F
LEXINGTON      CLEAR     76  34  21 S8        29.98F
STAPLETON        N/A     77  35  21 CALM        N/A
GOTHENBURG       N/A     81  29  15 S3          N/A
CALLAWAY         N/A     79  29  16 SW6         N/A
$$

...OBSERVATIONS IN CENTRAL LINCOLN COUNTY AREA...

CITY           SKY/WX    TMP DP  RH WIND       PRES   REMARKS
N.P. AIRPORT   CLEAR     76  31  19 S10       29.96F
N.P. DOWNTOWN    N/A     76  33  21 CALM        N/A
N.P. SOUTHEAST   N/A     77  33  20 S6          N/A
N.P. HILLCREST   N/A     77  33  20 S7          N/A
$$

...SOME OBSERVATIONS FROM AROUND THE REGION...

CITY           SKY/WX    TMP DP  RH WIND       PRES   REMARKS
DENVER         PTSUNNY   74  12   9 W5        30.10F
LIMON          SUNNY     71  14  11 S7        30.12F
ASPEN          SUNNY     64  10  12 NW8       30.29F
LARAMIE        SUNNY     65  11  12 W20       30.18F
CASPER         SUNNY     68  15  13 SW15      30.02F
CHEYENNE       SUNNY     70  12  10 W15G26    30.12F
SCOTTSBLUFF    SUNNY     77  18  11 W7        29.98F
GRAND ISLAND   CLEAR     75  37  25 SE6       29.98F
OMAHA          PTCLDY    71  46  40 S9        30.00F
SIOUX FALLS    CLEAR     72  44  36 S8        29.92F
PIERRE         CLEAR     73  41  31 S8        29.82F
RAPID CITY     SUNNY     75  25  15 SE9       29.84F
BISMARCK       CLEAR     76  24  14 SW12      29.73F
KANSAS CITY    PTCLDY    66  48  52 S10       30.07F
HILL CITY      CLEAR     80  31  16 S6        30.01F
WICHITA        CLEAR     71  47  42 S14       30.05F
DODGE CITY     SUNNY     77  38  24 S15       30.03F
OKLAHOMA CITY  CLEAR     70  42  36 S9        30.11F
DALLAS         CLEAR     75  40  28 SE8       30.13F
AMARILLO       SUNNY     79  36  21 S15       30.07F
$$




USA.gov is the U.S. government's official web portal to all federal, state and local government web resources and services.